ODIN

Last updated on Mon Aug 03 2026 00:03:37 GMT+0000 (Coordinated Universal Time)

1 26702U 01007A 26214.63492782 .04748995 24326-5 19475-2 0 9997 2 26702 97.3551 259.4459 0011825 196.4444 163.6464 16.23145034396777

Satellite not in orbit

ODIN